カタログに戻る

STARLINK-32130

運用中通信VLEO
NORAD 60585·PAYLOAD·🇺🇸 United States

打ち上げ Aug 20, 2024 から Cape Canaveral Space Force Station

Loading…

次のパス (今後24時間)

TLE

最新Source: CelesTrak SupGP

元期: Sep 14, 2026, 22:32 UTC

1 60585C 24150C   26257.93937500 -.00064553  00000+0 -19070-2 0  2574
2 60585  53.1598 147.6983 0001321  88.8902 154.5504 15.34426948    18

AllMySatでSTARLINK-32130をリアルタイム追跡

Download on the App Store